EW1600 Weather Reports


time (UTC)temp
C
wind
direction
speed
KPH
gust
KPH
rain 1hr
cm
rain 24hr
cm
rain mn
cm
humidity
%
barometer
mb
20260506201503 3 168 3.2 8.0 0.00 0.43 0.43 76 1014.2
20260506201004 3 153 1.6 4.8 0.00 0.43 0.43 76 1014.1
20260506200503 3 198 1.6 4.8 0.00 0.43 0.43 76 1014.1
20260506195504 3 178 1.6 11.3 0.00 0.43 0.43 76 1014.0
20260506193504 3 324 1.6 4.8 0.00 0.43 0.43 77 1014.1
20260506193004 3 281 3.2 9.7 0.00 0.43 0.43 77 1014.2
20260506192504 3 284 3.2 8.0 0.00 0.43 0.43 77 1014.2
20260506192004 3 252 1.6 4.8 0.00 0.43 0.43 77 1014.1
20260506191504 3 277 3.2 11.3 0.00 0.43 0.43 76 1014.0
20260506191004 3 310 3.2 11.3 0.00 0.43 0.43 76 1014.0
20260506190504 4 274 9.7 19.3 0.00 0.43 0.43 76 1013.9
20260506185503 4 264 4.8 9.7 0.00 0.43 0.43 76 1013.9
20260506185004 4 265 3.2 9.7 0.00 0.43 0.43 76 1013.7
20260506184504 5 257 4.8 12.9 0.00 0.43 0.43 75 1013.7
20260506184004 5 248 4.8 9.7 0.00 0.43 0.43 75 1013.8
20260506183003 5 278 6.4 14.5 0.00 0.43 0.43 73 1013.7
20260506182503 5 214 11.3 20.9 0.00 0.43 0.43 71 1013.9
20260506182004 5 257 4.8 12.9 0.00 0.43 0.43 71 1013.8
20260506181504 5 154 4.8 14.5 0.00 0.43 0.43 70 1013.8
20260506181003 5 286 3.2 12.9 0.00 0.43 0.43 70 1013.8
20260506180004 5 262 4.8 16.1 0.00 0.43 0.43 68 1013.7
20260506175503 5 208 4.8 16.1 0.00 0.43 0.43 66 1013.7
20260506175003 5 169 4.8 14.5 0.00 0.43 0.43 64 1013.7
20260506174504 5 242 4.8 19.3 0.00 0.43 0.43 63 1013.7
20260506174004 6 153 4.8 11.3 0.00 0.43 0.43 64 1013.5
20260506173003 6 254 1.6 14.5 0.00 0.43 0.43 63 1013.4
20260506172504 6 201 6.4 16.1 0.00 0.43 0.43 62 1013.5
20260506172003 6 262 8.0 19.3 0.00 0.43 0.43 63 1013.5
20260506171504 6 268 9.7 19.3 0.00 0.43 0.43 64 1013.5
20260506171004 6 223 8.0 20.9 0.00 0.43 0.43 63 1013.5
20260506170503 6 271 8.0 16.1 0.00 0.43 0.43 63 1013.5
20260506170004 6 289 8.0 19.3 0.00 0.43 0.43 64 1013.4
20260506165504 6 269 9.7 20.9 0.00 0.43 0.43 63 1013.6
20260506165004 6 268 4.8 19.3 0.00 0.43 0.43 64 1013.6
20260506164504 6 166 3.2 11.3 0.00 0.43 0.43 64 1013.5
20260506164004 6 223 3.2 14.5 0.00 0.43 0.43 63 1013.5
20260506163503 6 222 3.2 14.5 0.00 0.43 0.43 63 1013.5
20260506162504 6 217 6.4 14.5 0.00 0.43 0.43 61 1013.6
20260506162004 6 260 4.8 16.1 0.00 0.43 0.43 63 1013.6
20260506161504 6 150 6.4 19.3 0.00 0.43 0.43 62 1013.7
20260506160504 6 163 3.2 11.3 0.00 0.43 0.43 60 1013.6
20260506160004 7 236 4.8 16.1 0.00 0.43 0.43 59 1013.6
20260506155504 7 269 8.0 14.5 0.00 0.43 0.43 58 1013.7
20260506155003 7 170 8.0 19.3 0.00 0.43 0.43 57 1013.6
20260506154004 6 264 9.7 16.1 0.00 0.43 0.43 62 1013.8
20260506153504 6 176 3.2 11.3 0.00 0.43 0.43 64 1013.8
20260506153004 6 241 4.8 9.7 0.00 0.43 0.43 64 1013.6
20260506152504 6 217 6.4 14.5 0.00 0.43 0.43 62 1013.7
20260506151504 6 198 4.8 14.5 0.00 0.43 0.43 64 1013.7
20260506151004 6 210 4.8 12.9 0.00 0.43 0.43 64 1013.7
20260506150504 6 210 6.4 19.3 0.00 0.43 0.43 63 1013.8
20260506150004 6 268 6.4 20.9 0.00 0.43 0.43 65 1013.9
20260506145504 6 172 8.0 25.7 0.00 0.43 0.43 64 1013.9
20260506145003 6 265 6.4 19.3 0.00 0.43 0.43 62 1013.9
20260506144504 6 236 4.8 19.3 0.00 0.43 0.43 65 1013.8
20260506144003 7 257 4.8 20.9 0.00 0.43 0.43 65 1013.8
20260506143504 6 177 3.2 12.9 0.00 0.43 0.43 66 1013.6
20260506143004 6 223 4.8 16.1 0.00 0.43 0.43 68 1013.7
20260506142504 5 198 4.8 12.9 0.00 0.46 0.43 67 1013.7
20260506142004 5 193 6.4 16.1 0.00 0.46 0.43 68 1013.9
20260506141504 5 153 6.4 19.3 0.00 0.46 0.43 66 1013.7
20260506141004 6 250 4.8 12.9 0.00 0.46 0.43 66 1013.9
20260506140004 5 283 6.4 12.9 0.00 0.48 0.43 68 1013.9
20260506135504 6 210 8.0 19.3 0.00 0.51 0.43 67 1014.0
20260506135004 6 267 8.0 19.3 0.00 0.51 0.43 68 1013.8
20260506134504 6 263 6.4 14.5 0.00 0.51 0.43 66 1013.9
20260506134004 6 175 4.8 11.3 0.00 0.53 0.43 66 1013.7
20260506133003 6 194 3.2 12.9 0.00 0.61 0.43 64 1013.7
20260506132504 6 224 6.4 24.1 0.00 0.61 0.43 66 1013.9
20260506132004 6 208 4.8 11.3 0.00 0.64 0.43 65 1014.0
20260506131004 6 156 4.8 19.3 0.00 0.71 0.43 65 1014.0
20260506130503 6 146 4.8 14.5 0.00 0.74 0.43 64 1014.0
20260506130004 6 267 3.2 14.5 0.00 0.76 0.43 65 1014.0
20260506124504 5 203 4.8 14.5 0.00 0.84 0.43 67 1013.9
20260506124004 6 257 8.0 19.3 0.00 0.86 0.43 64 1014.0
20260506123503 6 211 4.8 12.9 0.00 0.89 0.43 67 1013.9
20260506122504 6 258 3.2 19.3 0.00 0.91 0.43 70 1013.9
20260506122003 6 272 4.8 14.5 0.00 0.97 0.43 68 1013.9
20260506121504 6 187 4.8 14.5 0.00 0.99 0.43 67 1013.8
20260506121003 7 152 6.4 14.5 0.00 1.02 0.43 66 1013.8
20260506120504 7 232 8.0 14.5 0.00 1.07 0.43 67 1013.8
20260506120004 6 235 8.0 14.5 0.00 1.09 0.43 70 1013.8
20260506115004 7 261 6.4 16.1 0.00 1.17 0.43 66 1013.9
20260506114504 7 287 6.4 14.5 0.00 1.19 0.43 67 1013.9
20260506114004 6 269 3.2 11.3 0.00 1.24 0.43 73 1013.8
20260506113503 6 174 4.8 12.9 0.00 1.27 0.43 72 1013.9
20260506113004 5 265 4.8 8.0 0.00 1.30 0.43 74 1014.0
20260506112504 5 214 3.2 9.7 0.00 1.35 0.43 76 1014.0
20260506111504 6 268 8.0 16.1 0.00 1.40 0.43 71 1013.9
20260506111004 6 240 6.4 16.1 0.00 1.45 0.43 72 1013.9
20260506110004 5 262 3.2 9.7 0.00 1.50 0.43 75 1013.7
20260506105503 4 184 8.0 12.9 0.00 1.55 0.43 74 1013.8
20260506105004 5 270 4.8 11.3 0.00 1.57 0.43 76 1013.7
20260506104504 5 192 4.8 12.9 0.00 1.60 0.43 74 1013.8
20260506104004 4 180 3.2 12.9 0.00 1.63 0.43 76 1013.7
20260506103004 5 164 4.8 14.5 0.00 1.63 0.43 73 1013.6
20260506102504 4 273 3.2 14.5 0.00 1.63 0.43 74 1013.6
20260506102004 5 192 3.2 9.7 0.03 1.63 0.43 73 1013.7
20260506101504 5 172 3.2 12.9 0.03 1.65 0.43 69 1013.6
20260506101004 6 156 3.2 11.3 0.03 1.65 0.43 73 1013.5
20260506100503 6 162 1.6 11.3 0.03 1.65 0.43 73 1013.6
20260506100004 6 272 4.8 14.5 0.05 1.65 0.43 76 1013.6
20260506095504 6 280 6.4 14.5 0.05 1.65 0.43 75 1013.7
20260506095003 5 281 8.0 19.3 0.05 1.65 0.43 76 1013.7
20260506094503 6 258 4.8 16.1 0.05 1.65 0.43 80 1013.7
20260506094004 5 293 4.8 11.3 0.08 1.65 0.43 82 1013.7
20260506093503 3 220 8.0 19.3 0.10 1.65 0.43 80 1013.7
20260506093004 3 200 3.2 12.9 0.13 1.65 0.43 81 1013.7
20260506092504 3 257 3.2 14.5 0.13 1.65 0.43 85 1013.6
20260506092004 2 170 3.2 14.5 0.10 1.63 0.41 86 1013.7
20260506091504 2 192 1.6 11.3 0.10 1.65 0.41 87 1013.8
20260506090503 2 181 4.8 12.9 0.10 1.65 0.41 87 1013.7
20260506090003 2 272 1.6 4.8 0.08 1.63 0.38 88 1013.7
20260506085504 2 243 3.2 19.3 0.08 1.63 0.38 87 1013.6
20260506085004 2 231 3.2 14.5 0.08 1.63 0.38 86 1013.8
20260506084004 4 163 3.2 12.9 0.05 1.57 0.33 88 1013.7
20260506083004 3 307 0.0 3.2 0.00 1.55 0.30 90 1013.7
20260506082004 2 292 1.6 8.0 0.03 1.55 0.30 90 1013.7
20260506081503 1 239 1.6 4.8 0.03 1.55 0.30 90 1013.8
20260506073503 2 283 4.8 12.9 0.05 1.55 0.30 84 1013.4
20260506073003 3 283 8.0 19.3 0.08 1.55 0.30 81 1013.4
20260506072503 3 276 9.7 19.3 0.08 1.55 0.30 78 1013.3
20260506072004 3 286 4.8 9.7 0.05 1.52 0.28 77 1013.1
20260506071503 3 286 3.2 11.3 0.08 1.52 0.28 80 1013.1
20260506071004 2 167 0.0 4.8 0.08 1.52 0.28 80 1013.0
20260506070504 2 138 3.2 12.9 0.08 1.50 0.25 82 1013.0
20260506062504 2 255 3.2 8.0 0.08 1.45 0.23 82 1013.0
20260506062003 2 262 4.8 12.9 0.10 1.45 0.23 82 1013.0
20260506061503 2 257 3.2 12.9 0.08 1.45 0.20 82 1012.9
20260506061003 2 259 4.8 11.3 0.08 1.45 0.20 82 1012.9
20260506060504 2 283 3.2 11.3 0.08 1.42 0.18 82 1012.9
20260506051004 1 184 3.2 11.3 0.08 1.37 0.13 89 1012.8
20260506050504 1 144 3.2 4.8 0.05 1.35 0.10 89 1012.8
20260506045003 1 197 3.2 8.0 0.05 1.32 0.08 90 1013.0
20260506044504 1 185 1.6 4.8 0.05 1.30 0.05 91 1012.9
20260506044004 1 184 1.6 3.2 0.05 1.30 0.05 91 1013.0
20260506043503 1 250 1.6 4.8 0.05 1.30 0.05 91 1012.9
20260506043003 1 264 4.8 11.3 0.05 1.30 0.05 91 1012.9
20260506042504 1 295 1.6 8.0 0.05 1.30 0.05 91 1013.0
20260506042004 1 254 1.6 9.7 0.05 1.27 0.05 91 1013.0
20260506041503 1 264 1.6 8.0 0.05 1.27 0.05 91 1013.0
20260506040503 1 288 1.6 4.8 0.05 1.27 0.05 91 1013.0
20260506040004 1 296 3.2 9.7 0.05 1.27 0.05 91 1013.0
20260506035503 1 275 1.6 3.2 0.03 1.27 0.03 91 1013.0
20260506035004 1 259 1.6 9.7 0.03 1.27 0.03 91 1013.0
20260506034504 1 186 3.2 11.3 0.03 1.27 0.03 91 1013.1
20260506034004 1 176 3.2 11.3 0.00 1.24 0.00 91 1013.0
20260506033503 0 255 1.6 4.8 0.00 1.24 0.00 91 1013.0
20260506033005 0 281 1.6 8.0 0.00 1.24 0.00 91 1012.9
20260506032503 0 104 0.0 1.6 0.00 1.24 0.00 91 1012.9
20260506032003 0 94 0.0 3.2 0.00 1.24 0.00 90 1012.9
20260506031503 0 320 1.6 3.2 0.00 1.24 0.00 90 1012.9
20260506031003 0 19 1.6 4.8 0.00 1.24 0.00 90 1012.9
20260506030504 0 327 1.6 4.8 0.00 1.24 0.00 89 1013.0
20260506030003 0 201 1.6 3.2 0.00 1.24 0.00 89 1013.0
20260506025503 0 327 1.6 4.8 0.00 1.24 0.00 89 1013.0
20260506024004 1 222 3.2 9.7 0.00 1.24 0.00 89 1013.1
20260506023504 1 280 1.6 8.0 0.00 1.24 0.00 89 1013.0
20260506023004 1 294 0.0 4.8 0.00 1.24 0.00 89 1013.0
20260506022504 1 297 3.2 4.8 0.00 1.24 0.00 89 1013.0
20260506022003 1 307 1.6 4.8 0.00 1.24 0.00 89 1012.9
20260506021503 1 291 1.6 4.8 0.00 1.24 0.00 89 1012.9
20260506015504 1 252 3.2 16.1 0.00 1.24 0.00 89 1013.0
20260506015004 1 260 8.0 16.1 0.00 1.24 0.00 89 1013.1
20260506014503 1 275 8.0 16.1 0.00 1.24 0.00 89 1013.0
20260506013503 1 210 3.2 12.9 0.00 1.24 0.00 89 1012.9
20260506013003 1 152 4.8 14.5 0.00 1.24 0.00 90 1013.0
20260506012503 1 143 3.2 14.5 0.00 1.24 0.00 90 1012.9
20260506012004 1 258 1.6 4.8 0.00 1.24 0.00 90 1012.9
20260506011504 1 262 1.6 9.7 0.00 1.24 0.00 90 1012.9
20260506011004 1 298 1.6 8.0 0.00 1.24 0.00 90 1012.9
20260506005504 0 133 4.8 11.3 0.00 1.24 0.00 90 1012.9
20260506005003 0 153 1.6 8.0 0.00 1.24 0.00 90 1013.0
20260506004003 0 286 1.6 3.2 0.00 1.24 0.00 90 1013.0
20260506003503 0 50 1.6 3.2 0.00 1.24 0.00 89 1012.8
20260506003004 0 280 1.6 3.2 0.00 1.24 0.00 89 1012.8
20260506002503 0 121 1.6 3.2 0.00 1.24 0.00 89 1012.8
20260506002003 0 292 1.6 4.8 0.00 1.24 0.00 89 1012.8
20260506001503 0 318 0.0 4.8 0.00 1.24 0.00 89 1013.0
20260506001004 0 343 1.6 4.8 0.00 1.24 0.00 89 1013.1
20260506000504 0 330 0.0 3.2 0.00 1.24 0.00 89 1012.9
20260506000004 0 320 1.6 3.2 0.00 1.24 0.00 88 1013.0
20260505235504 0 291 0.0 1.6 0.00 1.24 0.00 88 1012.9
20260505235004 0 303 1.6 4.8 0.00 1.24 0.00 88 1013.2
20260505234504 1 356 0.0 0.0 0.00 1.24 0.00 88 1013.1
20260505234004 1 356 0.0 1.6 0.00 1.24 0.00 88 1013.1
20260505233504 0 73 0.0 1.6 0.00 1.24 0.00 87 1013.1
20260505233004 0 70 0.0 3.2 0.00 1.24 0.00 87 1013.1
20260505232503 0 54 1.6 4.8 0.00 1.24 0.00 87 1013.1
20260505232003 1 305 0.0 0.0 0.00 1.24 0.00 86 1013.2
20260505231504 1 299 1.6 4.8 0.00 1.24 0.00 84 1013.3
20260505231004 1 295 1.6 4.8 0.00 1.24 0.00 82 1013.3
20260505230004 2 271 8.0 19.3 0.00 1.24 0.00 80 1013.4
20260505225504 2 272 8.0 19.3 0.00 1.24 0.00 78 1013.3
20260505225004 2 246 4.8 11.3 0.00 1.24 0.00 77 1013.2
20260505224503 2 193 1.6 4.8 0.00 1.24 0.00 77 1013.0
20260505224003 2 294 0.0 4.8 0.00 1.24 0.00 78 1012.9
20260505223503 1 247 3.2 4.8 0.00 1.24 0.00 79 1012.8
20260505223003 1 296 4.8 11.3 0.00 1.24 0.00 80 1012.8
20260505222504 1 293 3.2 4.8 0.00 1.24 0.00 80 1012.8
20260505222004 1 224 1.6 3.2 0.00 1.24 0.00 80 1012.9
20260505221503 1 202 4.8 14.5 0.00 1.27 0.00 81 1012.8
20260505221003 1 136 1.6 4.8 0.00 1.27 0.00 81 1012.9
20260505220504 1 141 1.6 4.8 0.00 1.27 0.00 82 1012.9
20260505220003 1 150 0.0 1.6 0.00 1.27 0.00 81 1013.0
20260505215503 1 165 0.0 8.0 0.00 1.27 1.27 81 1013.0
20260505215003 1 261 3.2 11.3 0.00 1.27 1.27 81 1013.0
20260505214504 1 221 1.6 11.3 0.00 1.27 1.27 81 1013.1
20260505214004 1 270 3.2 14.5 0.00 1.27 1.27 81 1013.1
20260505213503 1 242 3.2 14.5 0.00 1.27 1.27 82 1013.1
20260505213004 1 233 1.6 9.7 0.00 1.27 1.27 81 1013.1
20260505212003 1 203 3.2 8.0 0.00 1.27 1.27 80 1013.1
20260505211503 1 143 4.8 12.9 0.00 1.27 1.27 80 1013.1
20260505211004 1 202 3.2 12.9 0.00 1.27 1.27 80 1013.1
20260505210003 2 152 3.2 11.3 0.00 1.27 1.27 81 1013.1
20260505205503 2 163 1.6 4.8 0.00 1.27 1.27 81 1013.1
20260505205004 2 159 1.6 11.3 0.00 1.27 1.27 81 1013.2
20260505204504 1 209 1.6 12.9 0.00 1.27 1.27 81 1013.1
20260505203503 1 159 0.0 3.2 0.00 1.27 1.27 82 1013.0
20260505203004 1 212 0.0 3.2 0.00 1.27 1.27 81 1013.0
20260505202504 2 128 0.0 4.8 0.00 1.27 1.27 81 1013.0